AirNav   Get $300 off a Bose A20
 
 1432 users online  

3AU Augusta Municipal Airport
Augusta, Kansas, USA

GOING TO AUGUSTA?


FAA INFORMATION EFFECTIVE 23 MAY 2019

Location

FAA Identifier: 3AU
Lat/Long: 37-40-17.9000N / 097-04-40.3000W
37-40.298333N / 097-04.671667W
37.6716389 / -97.0778611
(estimated)
Elevation: 1328 ft. / 404.8 m (surveyed)
Variation: 04E (2010)
From city: 5 miles W of AUGUSTA, KS
Time zone: UTC -5 (UTC -6 during Standard Time)
Zip code: 67010

Airport Operations

Airport use: Open to the public
Control tower: no
ARTCC: KANSAS CITY CENTER
FSS: WICHITA FLIGHT SERVICE STATION
NOTAMs facility: ICT (NOTAM-D service available)
Attendance: 0600-2200
Wind indicator: no
Segmented circle: yes
Lights: ACTVT HIRL RY 18/36; REIL RYS 18 & 36; VASI RY 36; PAPI RY 18 - CTAF.
Beacon: white-green (lighted land airport)
Operates sunset to sunrise.

Airport Communications

CTAF/UNICOM: 122.8
WX AWOS-3PT: 124.175 (316-733-6696)
WICHITA APPROACH: 134.8
WICHITA DEPARTURE: 134.8
CLEARANCE DELIVERY: 125.0
WX AWOS-3 at 1K1 (6 nm N): 118.3 (316-530-6004)
WX AWOS-3PT at BEC (7 nm W): 119.45 (316-515-7116)
WX ASOS at AAO (8 nm NW): 134.025 (316-636-2541)
WX AWOS-3P at EQA (14 nm NE): 120.875 (316-322-8095)
WX ASOS at ICT (17 nm W): PHONE 316-945-8022

Nearby radio navigation aids

VOR radial/distance  VOR name  Freq  Var
ICTr093/24.4WICHITA VORTAC113.8007E

 
NDB name  Hdg/Dist  Freq  Var  ID
NEWTON153/25.328106EEWK . .-- -.-

Airport Services

Fuel available: 100LL JET-A
SELF SERVE 100 LL; JET A IS FULL SERVICE.
Parking: hangars and tiedowns
Airframe service: MAJOR
Powerplant service: MAJOR
Bottled oxygen: LOW
Bulk oxygen: NONE

Runway Information

Runway 18/36

Dimensions: 4201 x 60 ft. / 1280 x 18 m
Surface: asphalt, in good condition
Weight bearing capacity: 
Single wheel: 12.0
Runway edge lights: high intensity
RUNWAY 18  RUNWAY 36
Latitude: 37-40.642790N37-39.952533N
Longitude: 097-04.639873W097-04.703435W
Elevation: 1328.0 ft.1306.4 ft.
Traffic pattern: leftright
Runway heading: 180 magnetic, 184 true000 magnetic, 004 true
Markings: nonprecision, in good conditionnonprecision, in good condition
Visual slope indicator: 4-light PAPI on left2-box VASI on left (3.00 degrees glide path)
Runway end identifier lights: yesyes
Touchdown point: yes, no lightsyes, no lights
Obstructions: 38 ft. tree, 984 ft. from runway, 165 ft. right of centerline, 20:1 slope to clearnone

Airport Ownership and Management from official FAA records

Ownership: Publicly-owned
Owner: CITY OF AUGUSTA
113 EAST 6TH AVE., BOX 489
AUGUSTA, KS 67010
Phone 316-775-4510
Manager: CODY SIMS
113 EAST 6TH AVE, PO BOX 489
AUGUSTA, KS 67010
Phone (316) 775-4505
ASSISTANT CITY MANAGER

Airport Operational Statistics

Aircraft based on the field: 103
Single engine airplanes: 84
Multi engine airplanes: 15
Jet airplanes: 1
Helicopters: 3
    
Aircraft operations: avg 99/day *
58% local general aviation
42% transient general aviation
* for 12-month period ending 02 November 2017

Additional Remarks

FOR SVC AFT HRS CALL (316)-733-1326.
PAEW MOWING SUMMER MONTHS.
RY ENDS LINE OF SITE OBSTRUCTED BY TERRAIN
CALM WIND RUNWAY IS RUNWAY 18
AIRPORT LINE OFFICE PHONE 316-733 1326

Instrument Procedures

NOTE: All procedures below are presented as PDF files. If you need a reader for these files, you should download the free Adobe Reader.

NOT FOR NAVIGATION. Please procure official charts for flight.
FAA instrument procedures published for use from 23 May 2019 at 0901Z to 20 June 2019 at 0900Z.

 
IAPs - Instrument Approach Procedures
RNAV (GPS) RWY 36   download (201KB)
VOR/DME-A   download (155KB)
NOTE: Special Alternate Minimums apply   download (39KB)
NOTE: Special Take-Off Minimums/Departure Procedures apply   download (147KB)

Other nearby airports with instrument procedures:

1K1 - Lloyd Stearman Field Airport (6 nm N)
KBEC - Beech Factory Airport (7 nm W)
KAAO - Colonel James Jabara Airport (8 nm NW)
KCEA - Cessna Aircraft Field Airport (8 nm W)
KIAB - Mc Connell Air Force Base (9 nm W)
KEQA - El Dorado/Captain Jack Thomas Memorial Airport (14 nm NE)
KICT - Wichita Dwight D Eisenhower National Airport (17 nm W)
 
Loc | Ops | Rwys | IFR | FBO | Links
Com | Nav | Svcs | Stats | Notes

Kansas City Aviation Department
 
Area around 3AU (Augusta Municipal Airport)
 
Road maps at: MapQuest Bing Google
 
Aerial photo
WARNING: Photo may not be current or correct
Aerial photo of 3AU (Augusta Municipal Airport)
Photo taken 27-Aug-2009

Do you have a better or more recent aerial photo of Augusta Municipal Airport that you would like to share? If so, please send us your photo.

 
Sectional chart

 
Airport diagram
CAUTION: Diagram may not be current
Diagram of 3AU (Augusta Municipal Airport)
 
Airport distance calculator
Flying to Augusta Municipal Airport? Find the distance to fly.

From to 3AU

Sunrise and sunset
Times for 24-May-2019
 Local
(UTC-5)
 Zulu
(UTC)
Morning civil twilight05:4310:43
Sunrise06:1311:13
Sunset20:3701:37
Evening civil twilight21:0702:07

Current date and time
Zulu (UTC)  24-May-2019 17:15:06
Local (UTC-5)  24-May-2019 12:15:06
 
METAR
K3AU 241655Z AUTO 19008KT 5SM +RA BKN007 BKN020 OVC030 20/20 A2998 RMK AO2
K1K1 
6nm N 
241655Z AUTO 18007G22KT 7SM RA SCT009 BKN012 OVC044 20/19 A2998 RMK AO2 T01990188
KBEC 
7nm W 
241655Z AUTO 18007KT 1 3/4SM RA BKN009 BKN021 OVC030 19/18 A2998 RMK AO2 VIS 1V5 P0007 T01920181
KAAO 
8nm NW 
241654Z AUTO 19012G19KT 10SM VCTS FEW011 BKN048 21/18 A2997 RMK AO2 SLP138 T02060183
KIAB 
10nm W 
241656Z AUTO 14007KT 6SM -RA BR FEW005 SCT013 SCT023 BKN028 OVC035 20/19 A2997 RMK AO2 RAB01 CIG 028V037 BKN V SCT CIG 026 RWY01 SLPNO P0008 T01960191 $
KEQA 
14nm NE 
241655Z AUTO 19012G18KT 10SM SCT049 OVC060 23/20 A2997 RMK AO2
KICT 
17nm W 
241653Z 20013KT 10SM SCT008 BKN050 OVC070 22/18 A2997 RMK AO2 SLP136 SHRA NE-SE-SW MOVG NE T02170183
TAF
KIAB 
10nm W 
240200Z 2402/2508 14012G18KT 9999 SCT030 BKN070 QNH2986INS BECMG 2409/2410 18012G18KT 8000 -SHRA VCTS BKN010 OVC020CB QNH2988INS TEMPO 2410/2415 18025G42KT 1000 -TSRA BKN002CB BECMG 2415/2416 20012G22KT 6000 -SHRA VCTS OVC020CB QNH2991INS TEMPO 2420/2501 19025G38KT 1000 -TSRA OVC002CB BECMG 2501/2502 20012G22KT 9999 NSW SCT030 QNH2989INS TX25/2421Z TN20/2412Z LAST NO AMDS AFT 2402 NEXT 2417
KICT 
17nm W 
241123Z 2412/2512 15010KT P6SM VCSH BKN040 OVC090 FM241700 21009KT 6SM SHRA BR OVC045 TEMPO 2417/2421 4SM TS BR OVC025CB FM242300 19010KT 6SM SHRA BR VCTS OVC040CB FM250100 18009KT 6SM SHRA BR VCTS OVC060CB FM250800 18008KT P6SM BKN100
NOTAMs
Click for the latest NOTAMs
NOTAMs are issued by the DoD/FAA and will open in a separate window not controlled by AirNav.

 

 
 

FBO, Fuel Providers, and Aircraft Ground Support

  
 Business Name 
 
 Contact 
 
 Services / Description 
 
Fuel Prices
 
Comments
  
Augusta Municipal Airport UNICOM 122.80
316-733-1326
316-733-1327
[web site]
[email]
Augusta Municipal Airport offers ALL the amenities that larger FBO's and Airports do, but without the hassle of the big city delays, access issues and headaches! Augusta Municipal Airport is close to downtown Wichita, with established crew rates for hotels, on-demand catering and a crew car. Augusta offers quick turn around for aircraft seeking to gas and go! Come check us out - you'll be glad you did! www.flyaugustaks.com
More info and photos of Augusta Municipal Airport
 
AirBoss™ fuel program   WSI Pilotbrief   WingPoints™ Rewards   Courtesy car  
 
Phillips 66
100LL Jet A
FS --- $3.50 
SS $4.50 --- 
GUARANTEED
AirBossMEMBER
PRICING
FS --- $3.33 
 
   4 read write
FS=Full service
SS=Self service
Update Fuel Prices
 

Would you like to see your business listed on this page?

 If your business provides an interesting product or service to pilots, flight crews, aircraft, or users of the Augusta Municipal Airport, you should consider listing it here.  To start the listing process, click on the button below
 
Add a business
 

Other Pages about Augusta Municipal Airport

www.flyaugustaks.com
www.augustagov.org/...
 
Update a link
 
Copyright © AirNav, LLC. All rights reserved. Privacy Policy  Contact